Regional Weather Roundup
Issued by NWS San Diego, CA

Home | Current Version | Previous Version | Text Only | Print | Product List | Glossary On
Versions: 1 2 3 4 5 6 7 8 9 10 11 12 13 14 15 16 17 18 19 20 21 22 23 24 25 26 27 28 29 30 31 32 33 34 35 36 37 38 39 40 41 42 43 44 45 46 47 48 49 50
000
ASUS46 KSGX 211410
RWRSGX

SAN DIEGO HOURLY WEATHER ROUNDUP
NATIONAL WEATHER SERVICE SAN DIEGO CA
700 AM PDT THU AUG 21 2014

NOTE: "FAIR" INDICATES FEW OR NO CLOUDS BELOW 12,000 FEET WITH NO
SIGNIFICANT WEATHER AND/OR OBSTRUCTIONS TO VISIBILITY.

CAZ042-043-060-061-PZZ750-775-211500-

GREATER SAN DIEGO AREA

CITY           SKY/WX    TMP DP  RH WIND       PRES   REMARKS
LINDBERGH FLD  CLOUDY    71  63  75 NW7       29.94R
POINT LOMA       N/A     67  62  84 NW12        N/A
NATIONAL CITY    N/A     70  64  80 CALM      29.93R
CHULA VISTA      N/A     70  64  83 CALM      29.86R
IMPERIAL BEACH CLOUDY    71  65  81 N5        29.93R
BROWN FIELD    CLOUDY    68  61  78 CALM      29.93R
MIRAMAR MCAS   CLOUDY    69  62  78 CALM      29.93R
MONTGOMERY FLD CLOUDY    70  63  78 CALM      29.93R

$$

NORTH SAN DIEGO COUNTY

CITY           SKY/WX    TMP DP  RH WIND       PRES   REMARKS
CAMP PENDLETON MOCLDY    64  61  90 CALM      29.94R FOG
OCEANSIDE AP   MOCLDY    66  61  84 CALM      29.92R
VISTA            N/A     65  60  86 CALM      29.91R
CARLSBAD       CLOUDY    68  62  81 N3        29.92R
DEL MAR          N/A     68  64  86 CALM      29.95R
LA JOLLA SCRIP   N/A     69  66  90 CALM      29.90R
FALLBROOK        N/A     64  64 100 CALM      29.95R
ESCONDIDO        N/A     66  62  87 N3        29.95R
SAN MARCOS       N/A     65  61  86 CALM      29.90R
POWAY            N/A     66  62  86 CALM      29.93R
R. PENASQUITOS   N/A     68  64  86 CALM      29.92R

$$

EAST SAN DIEGO COUNTY

CITY           SKY/WX    TMP DP  RH WIND       PRES   REMARKS
RAMONA         FOG       60  59  96 CALM      29.95R VSB 1/4
GILLESPIE FLD  CLOUDY    66  61  82 CALM      29.95R
LA MESA          N/A     67  64  87 CALM      29.87R
JAMUL            N/A     63  61  93 CALM      29.91R
DESCANSO N       N/A     60  50  69 CALM      29.80R
MT. LAGUNA OBS   N/A     60  44  55 CALM      29.73R
CAMPO            N/A     59  50  72 E3        29.96R

$$

ORANGE COUNTY AND THE LOS ANGELES BASIN

CITY           SKY/WX    TMP DP  RH WIND       PRES   REMARKS
JOHN WAYNE AP  MOCLDY    71  62  73 CALM      29.93R
LAGUNA BEACH     N/A     68  63  84 N2        29.89R
LAKE FOREST FR   N/A     63  58  84 CALM      29.85R
SANTA ANA        N/A     66  63  89 CALM      29.89R
HUNTINGTON BCH   N/A     66  63  91 CALM      29.95R
LOS ALAMITOS   PTCLDY    65  61  85 NW3       29.94R
FULLERTON      CLEAR     68  60  75 CALM      29.93R
LONG BEACH     CLOUDY    68  62  81 NW3       29.94R
L.A. AP        MOCLDY    68  60  75 W5        29.94R
L.A. DOWNTOWN  CLEAR     66  61  84 CALM      29.93R

$$

THE INLAND EMPIRE

CITY           SKY/WX    TMP DP  RH WIND       PRES   REMARKS
CHINO          CLEAR     63  61  93 CALM      29.95R
ONTARIO        PTCLDY    66  60  81 SW3       29.94R
SAN BERNARDINO PTCLDY    63  57  82 CALM      29.95  HAZE
RIVERSIDE AP   CLEAR     64  61  90 CALM      29.95R
RIV CYN CREST    N/A     64  64 100 CALM      29.93R
MORENO VALLEY    N/A     61  61  99 CALM      29.13R
MARCH ARB      CLEAR     62  62 100 CALM      29.96R
HORSETHIEF CYN   N/A     61  55  80 CALM      29.95R
PERRIS           N/A     62  61  95 CALM      29.95R
MENIFEE          N/A     62  61  96 CALM      30.02R
HEMET EAST       N/A     60  54  78 CALM      29.93R
FRENCH VALLEY  FAIR      63  59  88 CALM      29.95R
TEMECULA         N/A     61  60  96 CALM      29.92R

$$

SAN BERNARDINO AND RIVERSIDE COUNTY MOUNTAINS

CITY           SKY/WX    TMP DP  RH WIND       PRES   REMARKS
BIG BEAR AP    PTCLDY    43  37  81 CALM      30.22R
BIG BEAR SHEA    N/A     40  34  79 S1        30.02R
ANGELUS OAKS     N/A     54  44  69 CALM      29.84R
PINE COVE        N/A     57  46  66 CALM      29.81R

$$

SOUTHERN DESERT INCLUDING THE COACHELLA VALLEY

CITY           SKY/WX    TMP DP  RH WIND       PRES   REMARKS
PALM SPRINGS   PTCLDY    78  57  48 W3        29.85R
THOUSAND PALMS   N/A     82  53  37 NW9       29.80R
PALM DESERT      N/A     76  60  57 CALM        N/A
THERMAL        CLEAR     79  57  46 N5        29.79R
BLYTHE         SUNNY     77  73  87 NE3       29.85R
IMPERIAL AP    PTCLDY    82  53  36 CALM      29.81R
EL CENTRO NAS  PTCLDY    79  53  40 CALM      29.82R
YUMA AZ        PTSUNNY   84  63  49 E5        29.83R
MEXICALI       PTCLDY    81  66  61 NE6       29.83

$$

UPPER DESERT

CITY           SKY/WX    TMP DP  RH WIND       PRES   REMARKS
VICTORVILLE AP CLEAR     64  52  63 S6        30.01R
HESPERIA         N/A     59  54  82 NW3       30.01R
APPLE VALLEY     N/A     59  50  72 CALM      30.09R
GRAY BUTTE AP  FAIR      63  45  51 S3        30.00R
PALMDALE       CLEAR     65  48  54 S5        29.99R
LANCASTER      CLEAR     63  45  51 CALM      29.98R
EDWARDS AFB    PTCLDY    64  46  52 S6        29.97R
DAGGETT        CLEAR     71  49  45 W9        29.96R
29 PALMS N     CLEAR     71  49  45 W3        30.01R
NEEDLES        SUNNY     83  59  44 S3        29.88R

$$

REGIONAL REPORTS

CITY           SKY/WX    TMP DP  RH WIND       PRES   REMARKS
SANTA BARBARA  CLEAR     58  54  86 CALM      29.93R
SANDBERG       CLEAR     63  44  50 W8        30.09R
MT. WILSON       N/A     55  48  76 NE6         N/A
LAS VEGAS NV   MOSUNNY   77  49  37 S5        29.92R
PHOENIX AZ     CLOUDY    83  62  49 E7        29.90R
TIJUANA        MOCLDY    66  59  77 N5        29.95
ENSENADA NW      N/A     68  32  26 NE1       29.90R

$$

OFFSHORE ISLANDS

CITY           SKY/WX    TMP DP  RH WIND       PRES   REMARKS
CATALINA ARPT  CLOUDY    60  58  92 W3        29.97R
SAN CLEMENTE I MOCLDY    66  57  72 NW3       29.96
SAN NICOLAS IS MOCLDY    64  56  75 W6        29.95R

$$

MARINE AND OFFSHORE BUOY REPORTS

STATION/POSITION SKY/WX   TEMP    WIND        PRES    SWELL
                          AIR SEA DIR/SP/G            HT/PER/DIR
                          (F)     (DEG/KT/KT) (MB)    (FT/S/D)
TANNER BANKS               66 68  340/  6/  8 1014.0R   5/180/10
S CLEMENTE BASIN           67 70  300/  8/ 10 1013.4R   5/190/12
SAN NICOLAS IS.               65                N/A     3/220/11
SO. S. ROSA ISLA           64 66  310/ 10/ 12 1013.4R   3/13
W. S. BARBARA CH           62 62  320/ 10/ 12 1012.9R   3/320/11
S. MONICA BASIN            67 72  200/  2/  2 1013.3R   2/230/14
S PEDRO CHANNEL               69                N/A     2/150/11
DANA POINT                    71                N/A     3/190/13
CMP PENDLETON NS              73                N/A     2/210/13
OCEANSIDE OFFSHR              72                N/A     3/190/12
TORREY PINES OTR              73                N/A     2/210/14
LA JOLLA 1                 70 72  280/  5/  6 1013.3R
MISSION BAY BUOY              69                N/A     2/210/14
SAN DIEGO BAY                 73              1013.7R
POINT LOMA SOUTH              73                N/A     3/180/11

$$



USA.gov is the U.S. government's official web portal to all federal, state and local government web resources and services.